Flag for Canada Weather past 2 weeks in Oakville, Ontario, Canada

Now
40 °F

Quite cool.


Feels Like: 31 °F
Forecast: N/A
Wind: 18 mph from Northeast

Location: Burlington Piers

Current Time: Apr 19, 2015 at 7:23:05 PM

Latest Report: Apr 19, 2015 at 6:00 PM


Visibility: N/A

Pressure: 29.96 "Hg

Humidity: 75%

Dew point: 33 °F

Location of OakvilleLocation

Historic Weather in Oakville — Graph

°F

Oakville temperature yesterday

Maximum temperature yesterday: 67 °F (at 12:00 PM)
Minimum temperature yesterday: 50 °F (at 6:00 AM)
Average temperature yesterday: 57 °F

Past Weeks' High & Low Weather Summary

 TemperatureHumidityPressure
High75 °F (Apr 13, 4:00 PM)100% (Apr 8, 2:00 PM)30.41 "Hg (Apr 8, 2:00 PM)
Low31 °F (Apr 5, 4:00 AM)14% (Apr 18, 6:00 PM)29.44 "Hg (Apr 10, 10:00 AM)
Average44 °F68%30.12 "Hg
* Reported Apr 4 6:00 PM — Apr 19 6:00 PM, Oakville, Weather by CustomWeather, © 2015

Note: Actual official high and low records may vary slightly from our data, if they occured in-between our weather recording intervals... More about our weather records

Advertising

Oakville weather history for previous 24 hours

 ConditionsComfort  
Time TempWeatherWind HumidityBarometerVisibility
6:00 PM
Sun, Apr 19
40 °FQuite cool.18 mph75%29.96 "HgN/A
5:00 PM40 °FChilly.20 mph72%29.99 "HgN/A
4:00 PM39 °FChilly.22 mph76%30.02 "HgN/A
3:00 PM38 °FChilly.24 mph75%30.06 "HgN/A
2:00 PM38 °FChilly.24 mph77%30.11 "HgN/A
1:00 PM38 °FChilly.22 mph76%30.15 "HgN/A
12:00 PM37 °FChilly.22 mph79%30.19 "HgN/A
11:00 AM37 °FChilly.21 mph80%30.22 "HgN/A
10:00 AM37 °FChilly.18 mph80%30.24 "HgN/A
9:00 AM38 °FChilly.18 mph79%30.25 "HgN/A
8:00 AM38 °FChilly.18 mph77%30.24 "HgN/A
7:00 AM38 °FChilly.18 mph76%30.24 "HgN/A
6:00 AM40 °FChilly.20 mph74%30.22 "HgN/A
5:00 AM40 °FChilly.15 mph74%30.22 "HgN/A
4:00 AM41 °FQuite cool.15 mph70%30.21 "HgN/A
3:00 AM45 °FQuite cool.16 mph57%30.20 "HgN/A
2:00 AM49 °FCool.15 mph44%30.20 "HgN/A
1:00 AM49 °FCool.10 mph44%30.19 "HgN/A
12:00 AM49 °FCool.13 mph44%30.18 "HgN/A
11:00 PM
Sat, Apr 18
51 °FCool.16 mph42%30.18 "HgN/A
10:00 PM53 °FCool.15 mph40%30.18 "HgN/A
9:00 PM56 °FRefreshingly cool.16 mph37%30.16 "HgN/A
8:00 PM58 °FRefreshingly cool.15 mph28%30.12 "HgN/A
7:00 PM62 °FRefreshingly cool.14 mph17%30.13 "HgN/A
Weather by CustomWeather, © 2015

See weather overviewHow to use our weather pages